Theta_e
331 328 327 327 328 326 321 319 307 313 309 301 300 304 304 311 313 310 309 313 310 317 321 323 323 326 319 320 320 324 326 323 325 318 318 334 341 336 339 351 350 350 349 350 350 350 350 352 353 352 353 352 352 353 353 354 354 354 354 355 354 354 354 354 354 354 353 354 354 353 353 352 352 352 351 349 349 348 347 346 347 347 344 342 343 344 343 343 344 344 344 345 345 345 345 346 346
324 326 327 327 325 320 311 315 305 303 304 300 301 305 305 310 310 308 309 311 311 317 319 323 324 325 327 328 326 326 326 331 331 331 336 339 344 339 344 350 349 348 349 349 348 348 349 350 352 352 352 352 353 353 353 354 354 355 355 355 354 354 354 354 354 354 354 353 353 352 352 353 352 352 351 348 347 347 346 347 348 346 343 343 343 343 343 343 345 345 345 344 344 344 346 345 345
324 324 325 324 322 319 314 313 301 302 299 297 301 304 308 307 308 310 311 311 314 318 320 325 324 322 322 325 321 322 321 336 338 338 337 342 335 338 344 349 350 350 349 349 348 348 349 350 352 351 349 351 352 353 353 354 354 355 355 354 354 354 354 354 354 354 354 353 353 352 353 352 352 351 351 350 349 347 346 347 348 346 343 342 343 342 342 344 344 344 344 344 344 344 345 346 346
329 328 325 320 310 316 308 306 303 301 299 300 300 307 307 307 308 311 313 314 313 314 319 318 317 323 322 316 321 329 329 330 336 338 336 337 337 340 344 349 352 349 348 349 349 348 349 351 352 351 350 351 351 353 353 354 354 354 354 354 354 354 354 354 354 353 353 353 352 352 352 352 352 352 350 348 346 344 344 344 346 345 344 342 342 341 342 344 345 345 345 344 345 346 346 346 344
326 329 329 316 310 308 306 304 302 303 299 302 300 306 309 310 310 311 312 313 313 314 316 317 316 322 324 325 325 324 327 333 335 341 340 343 342 343 345 348 348 347 346 347 348 348 349 351 352 351 351 350 351 353 353 354 354 354 354 354 354 354 354 353 354 353 353 353 352 352 352 352 352 349 348 347 346 345 344 344 344 343 341 342 341 342 343 345 345 345 345 345 346 346 344 345 344
324 322 319 316 309 314 307 301 301 301 305 307 303 305 310 311 311 311 312 313 313 315 316 315 314 317 325 325 329 328 334 330 335 341 342 340 342 345 346 348 347 345 346 348 349 349 348 351 352 352 351 350 351 353 354 354 354 354 354 353 354 354 354 353 353 353 353 353 352 351 352 352 350 349 349 349 348 348 347 345 343 343 343 342 343 343 345 345 346 345 346 346 346 346 344 344 345
315 315 315 314 312 312 302 300 300 302 305 309 307 307 310 311 312 312 311 311 313 313 316 313 317 324 323 326 329 330 339 341 338 341 343 343 344 346 347 345 345 344 347 348 349 349 348 351 351 351 351 351 352 353 354 354 354 353 353 354 354 354 353 353 352 353 353 352 352 352 351 351 351 350 349 348 347 346 345 345 343 342 343 343 343 344 345 346 347 346 346 347 345 345 344 344 345
320 311 314 306 304 307 301 301 301 303 305 310 311 310 310 311 313 312 310 310 309 309 312 314 314 312 323 335 323 334 337 338 344 346 344 344 345 344 345 344 344 345 348 349 349 348 352 351 351 351 350 352 353 354 354 354 354 353 353 353 354 353 353 353 352 352 352 352 352 351 351 351 350 348 347 345 344 343 344 344 344 343 342 343 344 345 346 346 347 347 347 346 344 343 344 344 344
316 313 315 306 301 304 301 300 302 307 307 309 310 313 318 313 313 312 310 311 311 312 312 313 313 310 321 324 331 336 339 343 346 348 345 345 344 342 343 343 343 345 347 349 349 348 349 351 351 350 351 352 353 354 354 353 353 354 353 353 353 353 353 352 352 352 352 351 351 351 350 349 349 348 347 345 344 343 343 343 344 344 344 344 345 346 346 346 347 346 345 342 344 343 344 344 342
312 311 305 304 304 298 299 301 300 303 305 309 310 312 312 313 313 312 311 310 311 312 313 314 313 309 322 329 331 335 337 344 345 345 346 345 343 343 342 343 345 347 348 348 347 347 348 353 351 351 352 353 354 354 353 354 353 353 353 353 353 352 352 352 351 351 351 351 350 349 348 347 347 346 345 345 344 343 343 342 342 344 344 344 344 345 345 345 345 345 344 344 344 345 343 345 345
306 311 311 302 299 297 297 299 302 304 305 309 310 313 313 313 312 311 311 310 312 312 313 314 310 311 323 329 334 341 343 344 343 341 344 343 344 343 342 344 348 350 348 348 347 347 348 349 353 352 354 354 354 354 354 354 353 353 353 353 352 352 351 351 351 351 350 349 348 347 346 346 346 345 344 344 344 343 342 342 343 343 343 344 344 344 345 345 345 344 344 345 346 344 346 343 347
304 305 306 299 298 298 299 299 301 303 306 308 308 312 314 313 313 311 311 309 312 311 311 314 310 315 324 330 332 337 341 343 343 343 344 345 343 343 342 344 347 349 348 346 346 346 345 348 349 354 354 354 354 354 354 353 353 353 353 352 351 351 351 351 350 350 349 348 346 345 344 344 343 343 343 343 343 343 342 342 343 343 343 343 343 344 343 344 345 345 346 346 345 346 344 346 347
306 307 303 300 299 300 302 301 301 303 304 306 307 312 315 313 311 311 311 311 312 311 311 315 316 315 318 329 335 339 339 342 344 345 344 343 343 342 343 343 346 345 345 347 344 344 345 345 346 351 353 354 354 354 353 353 352 352 352 351 351 351 351 351 350 348 347 345 344 344 343 343 342 342 342 343 342 343 343 343 343 343 343 343 343 343 343 344 344 345 345 345 345 345 346 345 345
307 308 305 299 304 302 301 301 303 301 301 307 310 312 314 312 312 313 312 309 310 310 314 317 316 316 328 332 333 336 339 343 344 345 343 342 342 342 344 343 346 346 345 345 343 342 341 342 345 350 352 353 352 353 353 353 352 352 351 351 350 351 350 349 348 347 346 345 344 344 343 342 341 341 341 341 342 342 342 342 342 343 343 344 344 344 344 344 345 344 346 345 346 346 346 345 345
307 310 305 302 300 301 303 300 301 302 302 308 310 312 312 315 314 313 312 310 310 315 317 319 317 314 316 327 330 335 339 343 343 343 344 342 342 343 343 346 347 344 343 343 342 341 341 341 345 349 351 350 352 352 352 351 352 351 351 351 350 350 350 349 347 346 345 344 344 344 344 343 342 341 341 341 341 342 342 343 343 342 343 342 344 343 344 345 345 345 344 346 345 346 345 345 345
310 308 305 300 298 299 301 302 304 302 303 308 311 312 312 313 315 312 313 313 312 316 318 313 318 313 318 321 330 339 342 343 342 346 345 349 345 345 344 344 342 342 342 343 342 342 341 341 347 347 349 350 352 351 351 351 352 351 351 350 350 350 349 348 347 345 344 345 345 345 344 343 342 341 341 340 342 342 342 343 344 343 343 344 342 342 343 344 344 344 344 343 345 344 345 345 346
312 309 301 300 297 299 301 302 304 299 306 308 311 311 309 310 315 316 318 316 311 312 316 316 315 321 320 324 339 342 343 344 345 345 348 344 342 341 342 340 340 342 342 342 343 341 340 341 345 343 349 350 350 351 351 350 350 352 351 351 350 349 348 347 346 345 344 344 345 344 345 343 344 342 341 340 343 342 343 343 344 344 344 345 344 344 344 344 343 343 343 343 344 345 344 346 345
309 302 300 298 300 300 304 303 305 308 307 308 309 310 310 309 313 315 316 314 313 312 313 315 318 329 338 341 344 344 343 342 343 343 342 341 341 338 337 338 338 338 340 341 343 342 341 342 345 343 347 348 349 350 350 350 350 351 349 348 348 347 347 347 345 344 347 344 344 344 344 346 345 343 345 345 344 344 342 344 344 343 345 345 346 345 346 344 346 344 344 344 345 344 345 343 340
304 302 301 298 301 304 307 307 308 307 307 310 310 311 311 310 313 314 310 310 310 310 311 312 315 327 337 339 342 343 342 342 344 343 341 341 339 339 337 338 338 339 340 340 342 345 344 344 345 343 345 348 348 349 350 350 349 349 349 348 347 347 346 345 344 345 345 342 342 342 345 348 346 346 347 346 346 343 343 345 345 346 345 346 345 347 347 347 346 347 346 346 344 347 344 341 336
306 303 299 300 305 306 308 309 309 310 310 308 309 310 311 312 312 315 310 309 310 309 308 310 311 325 328 339 339 340 342 341 344 344 341 340 340 339 339 339 339 338 341 340 341 347 344 344 346 344 346 348 347 347 349 350 349 348 348 348 346 345 345 344 345 344 343 341 342 346 349 348 353 353 347 349 350 347 345 347 346 346 348 347 347 346 347 348 347 347 347 348 347 344 338 335 333
306 303 300 302 306 304 307 309 310 310 311 310 309 311 310 312 313 312 311 308 308 310 312 311 311 317 325 332 339 340 340 341 342 344 343 341 342 342 341 340 339 339 343 342 342 346 345 346 346 345 345 348 347 349 349 349 349 347 347 347 345 344 344 346 345 344 344 343 345 348 347 353 351 353 352 349 348 347 346 345 346 345 345 344 347 344 345 340 346 340 340 343 341 335 332 333 333
305 302 305 305 306 304 308 309 310 310 311 310 310 308 308 314 313 312 311 307 306 309 313 315 315 315 327 335 337 339 339 340 342 343 344 344 343 342 344 342 344 343 343 340 341 342 345 344 346 345 346 347 347 348 349 348 349 346 346 347 345 344 345 346 345 346 346 348 350 349 350 350 349 351 352 352 349 352 349 348 345 345 346 344 344 344 345 340 340 338 332 331 333 334 341 346 347
299 304 305 307 307 305 309 309 309 310 309 309 308 310 312 311 310 312 311 310 311 314 316 316 316 321 332 338 338 339 339 340 342 343 344 344 344 343 345 341 340 340 340 340 342 342 345 347 346 347 345 346 347 346 348 347 347 346 347 347 345 343 345 343 344 345 347 350 352 350 350 347 348 346 350 349 349 347 348 349 349 351 352 350 348 347 349 349 348 346 342 347 347 346 341 340 343
302 300 305 305 307 306 308 309 310 310 309 308 311 312 309 309 306 312 310 312 313 314 316 316 323 331 334 336 339 340 340 340 343 344 345 345 346 344 346 342 341 342 340 341 341 342 344 345 346 348 345 346 346 346 345 347 347 347 347 347 345 345 343 342 343 345 348 349 351 351 352 349 350 350 348 349 349 347 343 346 348 351 350 346 349 347 350 348 348 351 346 344 344 347 340 343 345
300 300 304 305 306 307 308 308 309 309 310 310 310 308 308 310 310 311 310 312 313 314 315 316 329 329 331 334 338 342 342 343 343 345 346 344 348 346 348 343 343 341 340 340 341 341 343 345 347 346 344 346 346 346 344 345 345 347 346 345 344 348 345 345 345 348 347 348 352 351 350 348 348 348 347 347 349 347 349 348 350 347 347 346 345 347 349 348 348 352 349 344 345 344 344 345 342
302 302 304 304 305 307 308 308 308 308 309 310 308 307 309 310 312 309 311 313 315 315 315 316 329 328 331 333 337 342 343 343 344 345 345 345 347 346 347 342 342 341 341 341 341 341 343 345 345 344 343 345 347 347 345 344 346 345 345 345 345 346 348 346 349 350 350 350 349 352 351 353 348 346 347 346 347 346 345 344 347 347 346 348 351 347 349 349 350 350 348 342 344 344 345 346 342
305 303 303 303 304 306 307 306 307 308 308 309 306 307 307 310 309 304 313 316 315 314 315 318 318 325 329 332 337 344 344 344 344 345 345 344 346 343 344 343 340 340 342 340 341 340 343 344 343 344 342 346 344 342 344 345 346 345 344 344 345 343 347 348 347 348 351 350 353 351 352 349 346 345 342 343 343 343 342 347 350 351 350 349 350 348 351 352 351 349 348 343 342 345 342 339 340
303 304 303 303 304 305 306 307 307 308 306 308 308 306 308 310 308 305 310 318 319 317 329 319 316 315 324 330 335 342 346 346 345 346 342 342 341 341 341 341 341 341 341 341 340 341 342 343 343 343 345 346 346 342 345 344 345 344 345 344 344 344 348 349 347 347 347 352 353 354 351 351 352 350 344 343 345 346 345 347 347 348 348 349 349 353 352 351 347 345 343 342 343 341 338 340 340
303 303 298 301 302 301 304 304 306 307 305 308 308 305 304 305 305 309 311 320 320 316 318 319 324 322 323 324 329 339 341 345 345 343 343 343 343 344 342 344 343 342 342 343 341 342 342 344 342 342 346 346 346 344 343 345 346 345 345 346 345 348 346 348 346 346 347 351 353 353 348 348 348 349 352 350 350 350 350 346 346 349 349 352 351 349 346 346 349 346 345 345 345 344 347 340 336
303 302 299 298 299 298 303 305 305 305 307 308 307 295 299 303 307 310 313 316 323 320 313 312 321 321 323 326 323 336 338 342 342 344 344 343 345 345 343 345 345 343 340 342 342 342 344 344 344 343 344 343 347 347 348 346 346 345 346 347 348 346 347 347 349 352 349 349 350 350 347 346 346 347 349 350 351 350 349 346 347 347 347 348 348 351 350 344 346 342 343 341 340 340 338 339 340
297 300 301 295 294 294 302 303 304 302 306 307 308 296 298 303 306 311 313 319 316 313 312 312 315 323 322 322 330 334 339 342 344 345 346 346 345 345 345 345 346 345 341 342 341 343 343 343 344 343 347 344 347 347 347 347 349 344 345 346 346 347 347 351 349 350 349 350 350 350 349 344 341 342 343 351 350 349 346 348 349 349 347 350 351 348 348 343 344 341 337 339 343 340 337 334 329
299 295 292 296 294 295 300 304 303 299 304 307 305 297 298 302 305 311 313 312 315 310 311 312 314 321 322 321 332 334 335 341 345 345 347 346 346 344 345 344 345 346 343 342 343 343 342 344 344 343 347 347 346 347 347 348 347 349 347 346 347 350 350 348 352 348 347 350 350 348 344 344 342 342 344 346 351 348 346 345 348 347 346 345 347 350 346 340 339 339 338 336 337 336 335 329 328
297 294 293 292 295 295 297 302 304 304 303 304 303 297 300 302 307 309 312 311 310 309 310 312 317 322 323 321 325 333 332 334 340 343 345 345 345 344 344 345 345 345 344 342 342 342 342 343 343 345 344 346 346 347 347 348 348 347 349 347 346 351 349 349 354 347 344 349 349 347 344 344 343 342 345 346 347 342 342 344 345 345 347 345 347 344 347 338 338 339 335 337 335 335 332 327 327
292 295 292 295 294 295 293 301 303 303 302 299 303 300 300 303 306 308 312 310 310 308 310 314 317 317 319 320 319 330 331 331 334 339 343 344 343 345 346 344 345 344 345 343 342 342 342 342 343 345 345 346 346 346 346 347 347 347 349 346 348 348 348 347 348 345 347 348 348 345 345 345 344 342 343 344 346 342 343 346 344 347 343 349 344 343 338 339 337 337 334 332 333 334 331 326 324
290 292 291 292 295 296 295 295 300 302 302 299 301 300 300 303 306 307 309 313 310 308 310 310 313 315 316 319 320 325 328 331 335 339 343 342 344 346 345 345 345 345 344 343 343 343 343 342 343 346 345 346 346 347 347 347 347 347 348 346 345 347 345 347 345 344 346 348 345 343 342 342 344 342 342 341 338 344 343 344 346 347 344 346 344 342 343 338 335 334 334 334 336 335 330 326 322
293 294 293 293 292 293 295 298 302 302 299 298 299 297 299 302 303 306 308 311 311 310 311 310 311 312 316 317 319 322 327 328 334 342 343 342 343 344 344 344 345 343 343 343 343 343 342 342 342 344 345 345 346 346 345 344 342 341 341 340 337 338 341 342 343 344 346 346 343 343 343 343 342 341 342 340 341 348 345 343 344 346 344 346 345 337 334 334 334 331 333 332 334 327 326 321 320
295 296 296 294 294 295 298 299 302 303 300 299 299 299 300 301 302 305 308 311 309 309 309 310 310 311 314 316 317 322 326 329 339 340 341 342 343 344 344 343 343 343 343 343 342 341 342 340 340 341 343 345 344 342 342 342 339 341 339 336 335 338 339 341 343 343 341 344 343 342 343 344 342 340 341 343 345 344 344 346 345 340 340 339 338 336 332 332 331 330 332 335 334 328 322 322 320
293 294 294 293 295 293 297 298 302 303 299 297 300 299 299 301 303 304 306 307 307 307 308 310 310 312 315 315 317 322 324 332 337 336 339 342 342 343 343 342 342 340 341 342 341 341 341 341 340 342 343 344 344 344 342 342 342 341 337 336 339 337 340 338 340 342 339 342 343 343 342 341 342 341 342 343 344 344 344 343 343 341 340 333 334 333 331 331 332 329 333 330 335 329 324 320 321
294 292 292 293 294 297 299 300 302 302 300 297 300 297 298 300 302 304 305 305 307 309 310 310 311 314 316 316 317 321 325 329 337 338 339 339 341 342 341 342 342 342 341 341 341 341 341 340 341 342 343 343 343 343 343 342 343 342 340 338 338 337 343 341 342 342 342 341 344 344 343 342 342 340 341 341 342 341 341 340 337 342 338 336 333 332 334 332 334 332 330 327 328 333 326 326 322
292 292 290 289 295 294 292 298 300 301 299 297 299 298 299 302 303 303 306 305 306 311 316 315 315 315 316 316 319 321 323 329 333 336 337 338 338 339 340 340 341 341 340 340 341 340 340 340 341 342 343 343 343 343 343 344 343 342 341 339 341 341 339 341 342 344 342 341 340 342 342 342 340 339 339 338 337 339 340 338 336 336 333 332 333 332 331 329 329 328 330 329 325 321 324 326 330
292 292 292 291 292 294 296 296 299 300 301 301 299 297 297 299 299 300 305 307 307 312 318 318 318 319 318 319 322 323 322 329 331 334 336 337 337 337 338 340 341 340 340 340 340 340 340 340 341 342 343 343 343 342 343 342 341 340 341 342 342 339 340 338 337 337 339 338 338 339 338 339 338 338 339 337 335 336 337 338 335 331 332 337 336 331 330 328 327 326 328 326 322 326 320 323 326
291 293 293 294 295 295 297 298 298 295 294 299 297 290 291 298 299 299 302 304 304 308 313 314 315 315 315 315 318 323 326 330 332 334 336 336 337 337 338 339 339 338 338 341 343 342 341 341 342 342 342 342 342 342 342 341 338 337 337 334 332 333 332 333 332 333 334 334 334 337 336 337 336 338 336 333 333 333 334 334 330 329 330 331 329 327 326 326 325 325 326 326 324 320 318 317 315
290 291 296 295 296 296 295 296 296 292 289 296 299 290 288 297 297 299 302 302 302 306 311 310 312 314 313 313 316 321 327 332 334 336 336 335 336 336 337 339 338 338 339 342 343 345 343 343 343 342 341 341 341 340 341 340 338 338 338 335 334 333 332 334 337 337 336 336 336 336 335 335 333 332 332 332 330 330 329 327 326 326 327 329 330 328 326 325 324 324 326 323 321 322 320 313 314
288 296 297 296 295 294 295 296 296 294 299 299 299 296 291 291 296 301 302 301 302 303 310 308 309 314 313 313 315 320 331 333 333 335 335 336 336 336 336 339 338 338 340 341 342 343 342 342 342 341 341 340 340 340 339 340 338 337 336 336 336 335 334 335 337 337 338 335 334 333 333 332 330 330 330 327 327 326 326 325 325 326 326 327 326 323 323 324 323 324 325 324 323 322 324 316 315
292 296 297 295 295 295 295 295 295 295 295 291 295 297 291 291 297 301 301 298 300 301 304 310 312 312 313 314 314 319 330 333 334 334 333 334 335 336 337 338 338 339 339 339 341 341 342 343 341 341 340 339 340 340 339 339 339 338 337 336 335 335 336 336 335 335 333 333 331 331 330 329 329 329 327 326 325 323 325 325 325 326 326 324 322 322 321 322 322 322 322 320 320 320 320 320 317
295 297 299 298 297 296 296 295 294 294 292 288 292 296 289 290 295 298 300 299 298 301 303 306 312 313 313 313 315 320 329 331 334 334 334 335 336 337 338 338 338 339 340 340 340 341 342 342 339 338 338 338 339 339 339 339 339 339 336 335 334 334 334 333 333 332 333 332 330 329 328 327 327 327 327 325 325 323 324 325 327 327 326 323 321 319 319 319 319 319 319 320 319 317 317 317 316
299 297 295 295 295 294 295 295 294 291 286 290 294 296 293 287 293 295 297 298 300 302 303 307 312 313 313 315 315 319 329 331 333 334 335 335 337 337 337 336 337 339 340 339 339 339 340 341 338 336 337 337 338 338 338 338 338 338 336 335 334 333 332 331 330 329 329 329 327 327 328 327 326 324 324 324 324 322 323 324 324 321 321 322 320 319 318 316 318 318 318 318 317 316 315 315 315
296 294 292 292 291 293 292 292 293 285 284 291 296 296 295 286 291 297 300 304 303 303 303 307 310 312 313 314 315 319 323 328 331 332 333 335 336 336 336 336 336 337 338 337 338 339 339 339 337 335 336 337 337 337 337 337 337 338 337 336 335 335 332 330 329 328 327 327 327 327 328 328 326 324 324 323 322 323 325 324 323 322 320 319 317 317 315 316 316 317 317 316 315 316 316 316 314
294 293 292 286 284 285 282 286 282 283 283 291 296 296 292 290 296 299 301 302 304 305 305 307 311 312 314 314 314 319 322 328 330 332 333 333 334 334 334 335 336 335 335 336 337 338 339 339 336 335 334 336 336 337 336 338 337 337 337 337 336 336 333 332 331 329 329 329 328 327 328 325 324 322 322 322 324 324 323 322 322 320 319 318 317 316 316 315 315 315 315 315 316 315 315 315 313
291 289 288 285 281 280 278 282 285 285 289 294 294 297 290 296 298 301 301 303 306 306 308 309 312 313 314 314 316 320 323 324 332 333 333 333 333 333 334 334 335 335 335 336 336 337 338 337 336 334 334 336 337 337 337 337 337 337 338 338 337 335 333 333 332 330 330 330 329 328 327 325 323 323 322 322 323 321 322 323 321 319 318 317 317 317 316 314 314 311 312 312 312 314 314 313 312
290 294 291 288 286 283 278 282 279 281 285 291 297 291 288 289 294 302 303 306 307 308 308 310 313 316 317 316 317 319 321 323 332 333 332 333 333 333 333 334 335 334 335 336 335 337 337 336 335 335 334 336 336 337 337 337 336 337 338 338 336 335 333 333 333 332 330 329 329 328 327 326 325 323 322 322 321 321 322 321 319 318 317 316 316 316 316 315 314 312 312 313 313 313 313 314 312
293 294 295 289 287 292 284 286 286 286 286 287 290 290 294 294 303 305 304 305 306 308 308 310 312 315 316 316 317 317 319 320 327 332 333 334 334 334 334 335 335 335 335 335 335 336 336 336 336 336 335 336 337 337 337 337 337 337 338 336 336 334 334 334 333 331 331 331 331 329 328 327 326 323 323 321 322 321 320 318 318 317 316 316 316 314 314 313 313 312 312 312 311 314 312 311 311
290 292 287 290 296 293 288 288 292 291 288 285 292 293 296 301 301 304 304 304 304 306 306 307 311 314 316 315 316 318 320 321 329 332 332 333 333 334 335 335 335 335 335 334 335 336 336 336 336 336 336 337 337 337 337 338 338 337 336 336 335 334 334 333 332 331 332 333 332 330 328 326 325 324 322 322 321 320 318 317 316 316 316 315 316 315 314 313 313 312 311 310 310 312 312 311 312
292 286 290 296 299 297 291 283 286 285 282 284 291 289 291 292 289 304 304 302 303 305 306 309 313 314 314 315 317 318 319 322 332 332 333 333 333 333 334 335 335 335 335 335 335 336 337 337 337 336 336 335 337 337 337 337 337 336 335 335 335 334 334 333 333 332 333 332 330 329 328 327 324 323 321 321 320 318 317 317 315 315 315 315 314 313 312 312 313 312 312 312 312 312 310 311 311
293 291 298 289 285 285 290 287 281 281 281 284 288 291 292 293 294 300 301 302 303 306 309 310 310 312 314 315 317 318 320 329 332 333 333 332 332 333 334 334 335 335 336 336 337 337 337 337 337 337 337 337 337 337 337 337 337 336 335 335 334 334 334 334 333 333 331 329 329 328 327 325 323 321 320 319 317 316 316 316 315 314 314 313 313 313 313 312 312 311 312 311 311 312 310 309 310
297 297 293 297 293 289 287 287 290 289 283 284 285 289 287 297 298 300 301 304 305 306 308 309 311 313 314 315 317 318 320 329 331 332 332 332 332 332 333 334 334 335 335 336 336 337 336 337 337 337 338 337 337 337 337 336 336 336 335 334 333 333 333 333 333 330 329 328 328 327 326 323 322 321 320 319 317 316 315 314 314 313 312 312 312 312 312 312 312 311 310 310 310 310 308 308 309
290 290 289 291 293 296 294 294 290 288 285 285 285 284 290 298 302 303 303 305 307 308 308 311 312 313 315 316 317 318 321 328 331 332 332 332 332 333 334 335 335 336 336 336 336 335 335 336 336 337 336 336 336 337 337 336 336 335 334 332 332 332 333 332 331 330 329 328 328 325 324 323 322 320 319 318 316 315 314 314 313 312 311 311 311 312 312 311 311 310 311 310 309 308 307 308 308
292 290 289 290 289 288 285 285 294 292 288 286 285 285 293 300 304 305 306 308 308 310 310 311 313 313 315 317 319 318 322 326 332 333 333 332 333 333 334 335 336 335 335 334 335 335 335 335 336 336 336 335 336 336 336 336 336 335 333 332 332 334 333 331 330 329 328 327 325 325 324 322 320 320 319 317 316 316 314 313 311 310 311 310 311 311 311 311 309 310 309 309 309 307 307 307 307
Wind_Speed
12 11 12 13 10 9 10 6 7 5 7 10 8 4 4 10 11 12 8 5 9 5 3 12 4 5 10 2 12 13 12 9 8 3 4 4 4 12 7 20 19 17 18 14 14 14 15 16 17 17 15 16 14 14 13 13 12 12 12 11 12 11 10 10 10 11 12 11 10 9 11 12 12 11 10 10 10 9 8 10 11 12 11 11 10 10 9 9 12 11 11 12 12 11 10 9 9
9 11 12 12 9 7 5 9 7 9 8 9 9 11 9 12 9 9 4 4 10 4 6 4 10 7 22 14 15 11 11 12 10 7 6 7 9 8 12 18 17 18 15 14 13 13 14 15 17 16 17 16 15 14 14 13 13 12 12 12 12 11 10 10 10 10 12 11 10 9 11 11 12 10 9 9 10 10 10 10 11 12 11 11 11 9 8 11 12 11 12 11 11 10 10 8 7
8 9 11 9 7 5 7 8 9 9 10 8 8 8 9 8 7 10 4 7 9 5 6 6 6 9 11 13 8 8 6 7 10 9 8 11 11 7 14 16 16 18 17 13 13 13 12 14 16 15 18 17 15 14 14 14 13 13 13 12 12 11 10 9 10 10 11 11 10 10 10 11 12 11 10 11 11 10 9 10 11 11 11 11 10 9 10 12 11 11 11 11 10 9 8 8 7
6 8 7 5 6 6 5 6 9 10 11 10 7 5 8 6 10 4 5 8 3 8 9 6 8 5 8 4 10 12 9 6 7 8 7 8 8 10 13 16 16 14 14 12 12 13 12 16 16 16 17 16 16 14 14 14 14 14 13 13 11 11 10 10 10 10 11 11 10 9 10 12 12 12 12 12 11 10 9 9 9 9 10 11 10 9 10 11 12 11 11 10 9 8 7 7 6
6 6 8 6 7 3 2 6 9 10 13 7 8 8 14 7 11 1 5 8 7 11 5 11 5 5 11 12 6 4 6 8 7 7 7 8 12 11 14 16 15 14 14 14 13 13 14 19 16 15 16 17 15 15 14 14 14 13 13 12 12 10 10 10 10 11 11 11 10 9 11 12 12 12 11 11 10 9 9 9 8 8 10 9 8 8 10 9 10 10 9 8 8 7 6 5 5
10 9 6 5 4 1 5 7 10 12 11 8 3 8 11 13 19 5 3 6 4 4 9 5 7 8 9 6 5 7 6 4 7 7 9 11 15 15 16 13 14 13 14 14 14 12 14 18 17 15 15 16 15 15 14 14 14 13 13 12 11 11 10 10 10 11 11 11 10 10 11 12 12 12 11 11 10 9 9 9 9 8 9 9 9 9 9 9 9 9 9 8 7 6 4 4 4
7 5 4 7 6 4 7 9 11 13 13 17 7 8 7 8 17 5 7 2 6 10 10 6 6 19 10 6 11 7 7 8 7 9 9 13 15 14 12 12 13 15 15 14 13 13 17 16 16 15 15 15 15 15 15 14 14 13 13 12 12 11 11 10 10 10 11 11 11 11 11 10 12 12 11 10 9 8 8 8 9 8 8 9 9 9 9 9 9 9 8 7 5 4 3 3 3
8 7 0 5 7 3 9 10 12 12 13 14 10 10 17 18 13 5 11 12 8 12 6 2 7 7 11 11 7 4 5 5 9 14 16 14 15 16 11 11 12 15 15 13 13 13 18 17 16 16 16 15 15 15 15 15 13 12 13 12 11 11 12 10 11 11 11 12 11 11 10 11 11 11 10 9 8 8 8 8 8 8 7 8 9 9 9 8 8 7 7 5 4 2 1 3 3
8 8 2 5 7 4 9 11 11 13 16 15 15 12 17 15 13 9 12 10 10 5 8 6 6 1 10 11 9 7 7 12 14 16 15 16 16 15 9 12 14 14 14 15 14 14 13 16 15 15 16 15 15 16 15 14 14 13 12 12 12 11 11 11 12 11 12 12 11 11 11 10 10 11 10 9 8 8 8 7 7 8 8 8 9 8 8 8 6 5 4 3 2 1 1 2 3
8 6 6 6 6 10 10 11 13 12 13 19 19 17 15 14 8 4 12 8 9 9 9 10 5 4 19 16 10 9 9 12 13 14 15 16 16 12 13 14 14 17 18 15 14 13 11 17 16 14 14 15 15 14 14 13 13 13 13 13 12 12 12 12 12 12 13 13 12 11 10 9 9 9 9 8 7 7 7 7 7 8 8 8 9 9 8 7 5 4 2 1 1 1 2 2 3
8 7 7 9 10 10 11 11 13 15 17 17 18 20 22 19 18 9 11 15 14 8 10 13 8 12 16 13 7 8 13 14 14 14 15 15 13 14 13 14 16 18 16 17 14 13 13 12 17 14 14 15 13 12 12 12 13 13 13 13 13 11 13 13 13 14 14 13 11 10 9 9 9 8 8 8 7 7 5 6 6 7 7 8 8 8 7 6 5 4 2 1 0 1 1 2 4
9 10 8 11 12 11 12 12 14 13 20 19 17 17 15 18 18 14 14 15 7 8 13 7 3 10 12 9 5 8 13 14 13 14 14 13 11 13 13 11 14 17 17 16 15 13 13 12 12 15 16 15 14 14 13 14 14 14 13 13 12 12 13 14 14 13 13 12 11 9 9 9 9 9 9 8 7 6 5 5 5 6 6 7 7 5 5 5 4 3 2 2 2 1 2 3 4
11 9 11 11 11 13 13 15 13 14 14 17 17 17 17 19 18 10 13 15 14 14 15 11 5 1 5 7 7 9 13 14 14 14 14 12 11 10 12 12 15 16 16 16 16 15 15 12 13 12 14 17 14 14 13 14 14 14 14 13 13 13 14 14 13 13 13 11 10 9 9 9 9 9 9 9 8 7 6 5 4 5 6 7 7 5 4 4 3 2 3 3 3 2 3 3 4
11 10 10 13 12 14 15 15 14 14 13 16 16 18 20 16 15 12 10 16 17 14 5 8 10 3 12 9 7 8 11 14 15 13 11 12 10 10 10 12 15 13 14 15 15 15 14 14 13 12 13 12 12 13 14 15 15 15 15 13 14 14 14 13 13 13 12 11 10 9 9 8 8 8 9 10 9 8 7 5 4 5 5 6 7 7 5 5 4 4 3 3 4 4 4 4 4
13 10 11 12 13 15 16 14 16 17 13 17 16 18 19 16 18 13 12 15 16 9 3 4 11 4 4 9 7 10 12 15 14 11 9 9 11 12 11 11 11 13 13 15 15 15 14 13 14 12 11 12 12 9 9 12 16 16 15 15 15 15 14 13 13 12 12 11 10 9 9 9 9 9 9 10 9 10 8 7 6 5 5 6 7 7 6 5 6 5 5 4 5 6 6 6 6
11 11 11 13 16 17 15 17 17 17 14 18 21 16 19 21 20 16 13 16 10 6 9 4 8 7 5 11 10 15 16 15 13 9 9 10 10 9 12 11 11 13 11 13 13 12 14 14 12 10 11 11 10 10 9 12 14 16 15 15 16 15 14 13 13 12 11 10 10 10 10 8 8 8 10 7 9 9 10 8 8 6 5 6 6 6 7 6 7 7 6 7 6 7 8 7 8
12 11 13 14 18 19 16 16 16 16 13 16 18 19 18 18 20 18 14 13 13 16 6 3 8 7 4 10 16 18 16 14 12 11 10 9 8 8 8 7 7 8 8 12 11 10 12 13 13 9 11 11 11 11 10 11 12 15 14 15 15 14 13 13 13 12 11 9 9 10 10 6 5 4 6 6 9 6 7 8 9 8 7 7 7 7 7 7 7 8 8 8 9 9 9 9 9
12 14 15 19 17 20 16 19 16 14 16 17 18 19 19 19 18 17 13 20 15 19 20 3 7 14 17 15 16 17 17 16 14 13 12 10 8 9 9 8 8 8 8 9 9 10 10 12 11 10 10 12 10 9 8 9 10 12 11 11 10 11 12 12 10 8 9 6 10 8 6 6 6 6 6 8 6 6 7 9 8 8 7 7 7 7 8 8 9 9 10 11 11 11 9 5 4
15 14 17 20 18 17 18 18 20 18 18 14 20 19 18 15 16 12 16 18 22 21 11 14 8 15 17 16 17 16 16 14 12 12 14 13 11 11 9 8 8 9 8 9 7 8 9 10 10 9 9 11 11 10 8 8 11 8 11 9 8 10 10 10 8 9 7 7 8 7 6 6 6 6 6 7 6 8 7 8 8 7 7 7 8 7 8 10 10 11 11 12 11 8 4 5 5
19 16 19 20 17 20 22 22 19 20 21 21 13 20 21 18 15 10 15 18 22 19 12 17 18 13 18 18 17 17 15 16 13 12 13 12 12 12 10 10 9 7 8 9 8 7 10 9 9 10 10 11 9 8 8 8 8 8 8 8 7 6 7 7 8 8 7 7 7 6 6 5 3 2 6 6 10 5 6 8 8 7 7 7 8 6 8 10 12 12 12 11 7 5 5 4 6
15 20 20 18 17 21 22 23 21 23 24 21 16 10 19 20 18 15 17 17 16 13 18 20 19 14 18 19 19 17 15 15 15 12 12 12 11 9 10 10 10 8 7 9 8 7 9 8 9 8 10 11 10 7 7 8 8 7 7 7 7 6 6 7 6 7 7 8 8 6 5 1 4 3 1 3 3 3 4 3 4 4 4 5 8 5 4 6 6 6 5 5 5 5 6 5 4
14 23 25 23 19 23 21 21 24 22 22 19 17 20 17 15 19 21 20 17 13 14 16 18 17 14 20 21 19 16 16 15 14 13 12 10 12 11 10 10 10 7 10 8 9 9 7 8 9 7 8 7 9 8 8 8 9 7 7 8 7 7 7 7 5 5 5 4 3 3 2 4 4 2 1 2 3 1 2 2 4 4 4 4 6 5 5 4 5 5 4 5 4 5 2 1 1
18 20 25 25 25 25 16 21 23 24 21 22 21 20 17 17 17 21 20 18 16 22 16 15 12 5 18 14 15 15 14 15 13 13 11 11 10 9 7 10 10 8 7 8 9 8 8 6 8 8 7 8 9 9 5 8 7 7 7 7 7 7 7 5 5 4 4 3 3 4 4 4 3 3 2 2 2 2 1 2 2 1 1 1 3 2 2 1 2 1 3 1 2 1 1 2 3
21 19 22 27 28 29 24 20 20 22 24 23 21 20 23 19 21 16 20 18 17 19 16 9 16 22 19 19 16 14 15 15 12 12 12 10 10 9 8 11 10 8 8 10 9 9 7 8 8 8 7 8 7 8 9 7 6 6 7 7 7 7 6 5 4 5 5 4 3 4 4 3 3 2 1 0 1 3 2 3 2 2 2 2 1 3 1 2 2 1 3 1 2 2 2 4 2
23 23 24 25 28 26 24 25 25 22 23 23 23 24 23 24 20 17 20 20 18 15 15 19 7 16 15 16 16 13 12 12 12 12 9 9 8 10 7 11 10 9 8 11 10 9 10 8 8 8 7 9 7 8 6 6 6 6 5 6 5 4 4 5 4 3 4 4 4 3 4 4 3 3 2 1 3 0 2 2 2 2 4 4 4 3 2 1 0 1 0 2 1 3 2 1 1
23 25 25 22 25 27 24 25 28 28 19 19 25 27 27 26 21 22 21 22 13 15 21 20 6 10 13 12 12 16 13 12 12 12 12 9 7 13 7 10 11 9 12 10 10 9 9 8 9 9 8 8 7 5 5 6 5 6 6 5 5 4 3 4 4 2 3 3 3 2 4 5 3 2 1 1 1 0 2 2 2 4 4 4 2 2 3 2 2 1 1 3 1 0 1 1 4
18 24 25 27 28 26 22 25 26 25 24 25 24 24 28 24 19 15 19 19 15 17 18 12 12 15 17 13 12 12 12 13 13 10 11 9 6 10 8 10 10 10 12 13 10 9 9 8 8 8 9 7 8 7 6 6 5 6 6 5 4 4 3 4 4 3 3 3 2 4 0 8 5 4 1 1 2 3 3 4 3 1 2 2 1 2 1 1 1 2 2 3 2 2 3 4 4
22 22 24 27 26 25 22 24 26 23 22 28 28 27 24 24 23 22 18 14 14 13 2 9 13 15 11 11 11 10 10 10 11 11 13 12 9 10 10 9 10 10 12 10 10 10 10 9 9 9 6 7 7 8 6 7 6 7 7 5 5 4 4 3 3 4 4 3 3 3 4 5 3 3 6 7 7 7 7 4 3 3 2 2 2 1 2 1 1 0 3 4 3 5 4 2 4
20 23 24 24 24 24 27 25 24 24 21 25 27 27 28 23 23 25 22 11 9 15 10 8 6 9 9 8 9 10 10 10 10 11 11 10 9 10 11 9 10 10 8 12 10 11 11 9 9 9 7 8 7 7 8 6 6 6 5 4 4 4 5 3 3 4 4 3 3 3 5 5 4 1 1 1 3 2 2 4 5 2 1 2 2 2 3 4 2 2 1 1 2 2 0 4 3
20 21 19 22 20 22 28 24 23 27 19 22 23 21 22 27 28 24 17 10 8 10 14 16 5 12 8 10 10 11 12 11 11 10 10 10 9 11 11 10 10 8 9 8 13 12 10 7 6 7 7 9 6 5 5 5 5 5 4 4 3 5 4 4 3 2 5 4 3 3 5 3 1 2 1 1 2 1 1 0 1 4 4 3 3 1 2 3 1 2 1 2 3 1 3 2 2
18 18 17 15 17 18 20 23 26 27 20 23 22 19 18 25 27 21 20 7 7 12 15 18 11 11 11 8 12 11 12 13 12 11 10 9 10 11 11 11 10 9 10 10 14 12 11 9 7 6 6 8 6 5 6 5 4 5 3 3 4 4 4 2 3 2 5 3 3 4 6 4 2 2 3 1 2 1 3 1 1 2 3 2 1 1 2 3 1 2 5 1 2 2 1 5 9
13 14 18 15 18 16 22 21 29 29 21 26 25 18 20 25 27 20 19 16 11 18 15 16 14 9 11 9 12 13 12 12 11 11 11 9 8 11 12 12 11 8 11 13 12 11 11 10 8 7 7 8 7 5 6 5 5 4 3 3 4 3 2 3 1 3 4 4 3 4 6 3 2 1 2 3 3 1 2 3 2 2 3 3 2 0 1 3 3 5 3 4 3 2 3 8 7
14 16 15 19 16 16 17 23 20 30 24 24 27 18 20 22 23 20 15 16 19 19 18 15 11 8 8 11 10 13 13 12 12 12 12 11 9 11 12 12 10 11 10 14 13 12 11 11 10 9 9 9 8 7 6 4 5 4 3 3 4 2 3 2 1 6 6 1 3 4 4 5 2 1 2 3 5 2 5 2 2 3 2 3 1 1 1 6 5 4 4 2 3 4 3 9 7
13 14 15 16 20 18 19 15 24 22 21 19 25 22 24 15 18 20 13 21 22 22 19 13 13 12 11 11 12 13 13 13 13 13 13 12 10 12 12 12 11 11 9 14 13 12 12 10 9 9 8 8 7 7 7 5 5 4 2 3 4 2 2 3 4 5 3 3 4 4 5 5 2 1 2 3 2 7 2 2 2 2 4 1 0 2 3 3 5 4 3 1 3 5 5 7 7
14 15 16 18 21 24 20 17 15 22 25 28 26 27 26 22 18 18 17 16 22 23 20 19 17 17 14 12 14 13 13 13 14 14 13 13 11 11 11 12 11 11 9 14 13 11 9 10 8 9 9 8 7 7 6 6 6 4 4 4 3 2 5 4 2 3 2 4 4 5 5 4 2 1 2 3 6 1 2 2 2 1 2 1 1 2 2 4 4 4 3 2 2 3 6 7 8
21 19 17 17 19 19 18 20 18 19 24 25 31 22 24 25 25 18 19 18 14 19 20 17 17 15 15 14 13 12 13 13 11 11 14 12 11 11 11 11 10 11 12 12 13 12 11 10 8 8 8 8 7 7 6 5 5 5 6 5 4 2 2 3 3 2 1 2 4 4 4 4 3 0 2 1 6 0 2 3 1 1 2 2 2 4 3 4 3 4 2 1 0 8 6 8 8
21 20 19 18 19 18 20 23 16 21 22 26 26 24 23 25 27 20 16 13 19 20 18 17 17 16 15 14 13 14 15 14 10 12 11 14 13 14 11 10 10 12 13 13 13 13 12 12 11 11 9 8 7 7 6 6 7 5 5 6 5 5 3 5 5 6 2 2 4 5 4 3 3 3 1 4 2 2 2 1 1 3 3 4 3 4 6 4 3 4 1 1 1 6 6 5 6
23 19 20 18 20 17 20 19 20 22 18 17 23 26 28 24 22 24 21 18 17 22 24 20 20 16 13 16 15 15 10 11 13 11 11 12 12 13 12 9 11 14 11 12 13 14 13 13 11 11 9 8 7 7 7 7 6 5 6 6 4 5 4 4 5 6 6 4 4 6 6 5 5 4 4 3 2 2 2 2 1 2 2 5 4 4 3 3 3 3 0 0 1 4 5 6 6
21 19 17 18 19 18 20 22 20 20 21 17 24 26 23 27 24 20 24 22 17 16 20 19 19 17 13 13 12 15 11 11 14 15 14 13 13 13 13 11 11 12 12 12 12 14 14 12 10 10 9 9 8 8 7 6 5 6 6 5 5 5 2 3 6 4 5 6 4 4 4 5 3 5 4 4 2 3 2 2 3 1 2 2 4 3 2 2 2 2 2 1 1 1 5 5 7
17 17 18 17 16 18 16 20 24 22 17 17 20 22 19 22 22 23 22 23 19 17 11 14 15 17 16 16 12 14 14 14 17 17 16 15 15 15 14 12 13 12 13 12 14 15 11 10 11 10 11 10 9 8 6 7 7 7 6 7 5 3 4 5 7 5 6 6 5 5 3 5 6 4 4 4 3 2 1 2 3 3 4 5 3 2 2 3 1 1 1 2 3 1 3 4 3
19 21 18 17 19 21 21 15 21 22 22 23 22 18 15 18 19 20 20 23 21 15 10 12 14 14 15 12 12 16 16 17 17 18 17 17 16 16 15 14 13 12 12 14 13 12 9 13 12 12 12 11 10 9 8 8 7 6 6 5 4 6 5 5 5 4 5 5 6 5 5 5 5 3 3 3 4 3 2 2 4 4 4 1 1 3 2 3 2 2 2 3 4 1 4 2 2
16 22 21 19 22 23 21 24 18 15 18 24 23 15 17 16 21 23 18 17 20 18 19 19 19 19 17 14 13 17 16 19 21 20 21 19 18 15 16 15 14 12 14 12 9 12 12 11 12 12 10 10 10 10 10 9 9 9 8 8 8 7 7 6 6 8 6 6 6 5 6 5 4 2 3 5 4 4 2 2 5 3 2 2 4 4 3 2 3 3 2 1 2 5 4 3 2
16 15 22 24 23 23 23 23 21 17 18 19 23 21 12 16 18 21 19 20 22 17 24 25 20 19 19 15 13 14 18 20 21 21 20 19 17 18 16 14 15 15 15 10 8 8 12 11 12 12 11 10 10 11 10 9 9 7 9 8 8 8 8 6 5 5 6 5 6 6 6 5 5 4 4 4 5 5 5 6 5 4 3 2 2 3 3 4 4 3 2 3 2 2 3 3 3
15 15 20 22 26 26 24 26 22 15 15 19 25 19 12 12 17 19 21 21 22 23 22 24 24 20 19 17 14 13 20 22 21 22 21 18 18 18 19 14 16 14 14 11 10 8 12 11 12 12 9 10 10 11 11 9 9 9 9 7 6 6 6 6 6 5 4 5 6 6 5 5 5 4 4 6 5 5 4 4 3 2 2 2 3 4 3 3 4 3 3 4 5 5 2 3 3
14 17 20 21 26 25 26 22 15 17 17 18 19 25 16 14 11 21 24 25 23 25 26 28 25 23 19 17 16 15 21 21 21 20 22 21 19 18 17 15 15 15 15 13 11 12 10 12 11 11 11 10 10 12 12 11 9 9 9 7 7 5 7 6 4 4 6 6 7 5 5 5 4 4 5 5 5 5 4 3 3 2 2 3 5 4 4 4 3 3 4 4 4 5 5 3 3
17 20 18 18 19 24 24 17 16 14 16 15 19 19 14 13 16 14 23 24 25 24 25 24 23 23 21 18 16 16 18 20 20 20 20 20 18 17 16 15 15 15 13 11 12 11 11 11 13 12 12 11 10 12 11 11 10 9 9 9 9 8 7 6 5 5 5 5 6 6 6 5 5 4 4 5 5 5 4 3 2 2 2 4 5 5 5 4 4 4 4 4 4 5 5 5 5
16 20 19 17 18 18 18 16 12 12 16 13 22 22 17 14 16 17 12 19 21 20 17 18 21 23 22 19 17 18 19 20 19 20 19 19 18 17 17 17 17 14 11 13 13 13 11 11 14 14 13 11 12 12 12 12 11 10 9 10 10 11 10 9 7 5 6 6 6 6 6 6 6 5 4 5 4 5 4 3 3 4 4 3 4 4 5 5 4 4 4 4 5 5 5 5 5
21 15 15 13 14 17 17 13 12 12 11 16 23 22 22 16 13 18 15 17 24 20 19 23 24 24 22 18 18 18 20 20 23 21 23 20 20 19 17 16 16 16 13 14 12 12 12 12 14 16 14 12 13 13 12 12 11 11 10 10 11 12 11 10 10 11 11 10 7 6 6 6 6 6 5 4 4 4 4 4 4 4 3 3 4 4 5 5 4 4 4 5 5 4 4 4 4
18 17 16 15 8 9 9 11 11 9 8 11 20 22 19 22 13 14 21 20 21 21 18 20 23 24 21 21 20 18 18 21 20 20 21 20 20 20 19 17 17 16 15 16 14 12 12 13 16 17 16 14 15 14 14 13 11 11 10 10 10 10 11 11 11 10 9 8 7 6 6 6 6 6 6 4 4 5 4 4 4 4 4 4 3 3 4 4 4 4 4 5 5 5 5 5 5
18 19 17 15 12 12 10 13 7 8 12 18 21 23 17 12 18 19 19 20 20 22 17 20 22 21 20 20 20 18 20 23 19 20 20 20 18 19 19 18 17 16 16 14 13 13 12 13 16 16 16 15 13 14 14 13 12 11 10 9 9 10 9 9 8 8 8 6 6 6 6 6 6 5 7 5 5 5 4 3 4 4 4 4 4 4 4 4 5 5 5 5 5 4 4 4 4
16 18 18 13 12 10 8 12 11 10 10 17 22 18 12 18 8 23 21 16 17 19 19 18 20 19 17 19 22 22 21 19 20 22 21 21 22 19 17 17 15 14 16 15 13 13 12 13 15 16 16 15 15 14 13 13 11 11 9 9 9 9 8 7 7 7 7 7 7 7 6 6 6 6 6 5 5 5 4 5 5 4 4 4 3 3 4 4 5 6 5 5 5 4 4 4 4
15 17 14 14 14 8 12 8 13 12 12 12 15 10 10 14 10 15 21 20 19 20 21 19 20 20 19 19 20 19 19 20 18 19 20 20 22 18 16 15 16 15 16 14 14 13 13 14 15 15 16 16 15 15 13 12 11 10 9 11 10 10 7 7 7 8 7 8 8 8 7 6 5 7 7 6 5 5 5 6 5 5 4 4 4 4 4 5 6 6 5 4 5 4 5 5 4
11 15 16 16 14 13 5 5 13 10 9 9 4 8 12 11 15 11 18 21 21 20 22 21 20 21 20 18 19 20 17 18 20 17 19 22 20 18 17 17 16 15 15 15 16 15 15 15 15 16 15 14 15 14 13 12 11 11 11 12 11 10 10 9 9 10 9 8 7 7 6 6 7 7 7 5 6 6 5 5 6 5 4 4 4 4 6 5 5 5 5 4 4 3 4 4 3
8 14 15 17 18 14 8 9 8 11 12 7 11 15 15 15 10 10 13 21 21 18 21 22 17 18 19 17 17 18 17 15 21 25 25 25 22 22 20 18 18 17 17 17 16 14 13 14 16 16 15 16 15 14 13 11 11 12 11 12 11 10 9 9 9 10 8 7 7 7 6 7 7 7 7 6 6 6 5 6 6 5 5 4 4 5 5 5 5 4 4 4 3 4 4 3 3
16 12 16 17 12 15 12 5 8 12 11 7 14 16 15 16 12 14 17 19 18 16 19 19 18 18 19 17 18 18 18 18 21 22 21 21 21 20 19 19 20 18 17 16 14 13 13 13 14 16 16 15 14 12 12 10 11 9 9 11 11 10 9 8 8 8 7 8 8 6 6 8 8 8 7 7 6 6 6 6 5 5 5 5 5 5 5 5 5 4 4 4 3 3 3 4 4
21 17 14 16 12 12 12 8 7 12 11 10 13 20 12 13 11 12 15 14 14 15 17 16 16 17 16 15 15 16 15 19 20 20 20 20 21 22 22 20 20 19 18 16 15 13 15 14 15 15 14 14 14 14 12 12 11 10 10 10 10 10 9 9 7 9 8 8 8 8 6 10 9 8 6 7 7 7 7 6 6 6 5 5 5 5 4 5 5 4 4 4 3 4 4 4 3
13 13 11 11 11 8 10 10 12 8 7 8 8 11 11 11 11 14 19 18 15 13 15 13 13 15 16 17 15 14 16 20 19 19 20 20 20 20 19 18 17 17 15 14 14 15 15 14 15 15 17 16 15 14 12 11 11 11 12 12 11 9 10 9 9 9 8 8 7 7 6 7 8 7 7 7 7 8 8 7 7 7 6 6 6 5 5 4 4 4 3 4 4 4 4 3 3
11 11 12 13 16 14 13 10 10 10 9 7 8 8 10 10 11 10 11 11 13 11 16 13 12 16 15 13 13 15 15 21 20 20 20 19 19 18 17 17 16 16 16 16 15 14 15 16 16 15 15 16 15 13 12 12 11 12 13 12 12 9 9 10 10 9 8 8 8 8 8 7 8 8 8 8 8 7 7 7 7 7 7 7 6 6 5 4 5 4 4 4 4 4 4 4 3
Wind_Direction
316 310 308 300 294 281 287 259 257 216 229 242 250 222 262 194 259 185 218 111 238 78 114 152 97 273 92 350 58 60 44 58 29 350 86 140 147 125 165 110 117 120 122 128 130 132 131 131 132 131 133 134 134 132 130 130 127 124 121 119 117 118 118 118 112 110 110 111 108 110 111 105 101 101 98 92 88 83 81 77 85 85 85 93 98 98 101 104 99 102 107 99 91 92 91 91 83
308 305 298 290 278 301 309 325 283 281 261 269 259 274 241 199 198 279 212 206 55 48 254 199 174 85 132 151 97 75 56 51 53 93 100 130 130 147 115 118 122 122 123 128 135 135 132 134 132 134 134 135 136 134 132 134 132 130 124 122 121 121 123 119 115 110 113 113 110 104 107 104 105 105 104 98 86 79 71 80 86 87 90 101 106 109 113 108 105 106 104 104 101 98 91 90 86
297 301 300 293 261 234 287 254 263 259 258 245 250 217 21 263 229 212 247 356 41 140 273 26 2 168 73 85 102 90 90 91 90 92 96 123 139 156 130 123 120 118 123 134 138 134 131 134 134 137 137 139 137 136 135 133 134 131 127 123 126 126 125 119 114 114 110 110 112 115 110 110 103 100 92 92 89 81 78 86 93 94 98 106 114 116 111 105 106 109 109 105 101 95 95 84 74
275 254 258 300 308 290 287 295 263 260 252 240 290 295 184 237 238 234 138 91 243 283 179 189 228 93 123 203 97 93 108 87 85 109 123 156 136 148 122 116 115 123 128 137 141 133 132 134 136 138 138 138 139 138 137 135 132 131 128 127 126 128 123 117 114 115 108 111 113 113 109 101 101 104 99 87 85 84 80 75 89 100 104 108 118 122 110 102 110 109 104 102 97 95 85 77 59
259 245 209 268 285 274 336 279 288 266 243 267 265 333 303 233 295 22 179 117 252 281 258 156 243 142 68 60 139 106 104 95 77 104 134 145 136 135 127 126 127 130 135 139 134 129 133 137 135 137 140 140 139 138 138 137 132 130 127 129 130 126 121 119 118 114 115 113 116 116 110 107 106 100 93 92 89 87 85 84 91 98 96 108 112 107 110 110 103 107 105 104 103 88 76 64 49
260 239 201 234 262 57 246 272 265 261 257 244 266 253 315 309 291 210 241 168 46 255 285 263 222 145 62 67 87 114 160 113 144 136 117 123 140 132 133 134 132 135 138 134 124 125 137 136 133 136 139 141 141 139 138 136 132 128 130 130 130 122 119 120 119 118 118 117 119 115 109 107 104 99 94 93 93 92 90 92 90 100 108 110 115 111 111 114 115 114 117 107 88 81 67 50 30
280 299 203 216 234 198 281 272 269 274 248 233 226 261 205 262 271 124 292 8 205 246 165 283 43 111 124 120 88 70 71 123 146 135 128 133 129 130 142 142 138 137 134 127 129 132 134 132 133 136 140 141 141 140 138 135 131 132 131 130 127 123 120 121 124 121 117 114 109 107 109 109 106 103 100 96 95 92 90 93 96 100 111 116 116 119 119 119 122 117 107 94 90 72 56 28 16
266 262 274 238 268 240 246 256 264 270 278 254 258 262 283 280 278 74 260 260 166 231 180 199 222 249 95 75 87 103 106 100 105 111 121 126 134 139 158 136 134 134 124 128 122 124 132 132 134 138 139 141 141 141 137 133 134 134 131 129 126 126 127 128 125 118 112 108 109 110 112 110 106 104 101 101 100 100 105 103 104 109 113 121 119 118 116 117 108 98 95 94 88 78 14 19 3
264 246 150 282 243 237 257 257 261 256 270 272 256 242 239 269 289 194 225 216 59 317 239 164 17 231 120 129 115 115 102 101 100 114 124 134 141 155 148 138 136 133 122 111 115 126 132 134 135 137 140 141 143 141 136 135 134 133 132 129 126 126 127 128 123 116 113 111 109 107 106 104 109 108 105 102 99 104 105 110 110 111 111 121 124 121 122 117 111 95 92 96 96 67 35 346 348
262 237 227 234 242 228 238 243 254 261 260 258 268 263 252 269 258 331 282 292 233 190 261 60 265 252 138 113 129 139 121 114 121 125 133 144 149 147 144 138 136 118 102 113 119 128 133 136 134 136 140 140 140 139 137 135 137 135 133 129 126 128 128 123 121 120 115 110 107 106 105 106 106 107 108 105 110 108 109 105 114 119 120 120 130 131 128 125 107 122 118 96 101 52 3 344 330
245 218 249 245 227 238 225 238 241 263 270 265 240 251 268 277 285 205 221 254 272 282 191 107 258 239 114 108 85 114 123 129 133 134 142 141 141 146 143 140 121 110 117 121 128 125 136 137 135 137 137 140 138 136 134 136 135 132 132 128 126 127 128 125 126 120 113 110 112 112 109 113 113 110 112 111 112 113 113 108 109 114 125 125 130 138 135 125 128 132 146 164 360 336 323 330 325
244 240 203 231 241 228 228 238 231 232 260 273 239 226 237 257 260 232 229 252 247 285 289 284 144 328 105 87 114 129 129 132 132 133 128 133 151 149 140 133 130 123 127 127 120 132 139 136 137 141 139 140 137 136 139 138 134 131 126 127 126 127 127 128 125 118 113 114 115 113 114 114 113 114 112 116 116 113 110 123 115 117 119 129 129 135 142 136 141 146 163 190 272 307 291 309 322
239 232 237 238 226 236 240 238 229 216 247 261 262 227 238 260 269 214 245 254 247 247 220 235 267 343 104 108 141 130 134 125 126 125 134 154 153 144 128 129 118 123 120 124 133 139 141 143 140 145 141 139 137 140 140 136 134 128 126 126 129 130 129 126 121 117 115 117 119 118 120 118 120 120 121 122 126 129 132 131 140 129 134 129 136 134 142 166 171 176 191 218 219 255 273 292 297
234 227 238 244 239 235 234 239 242 215 217 244 252 262 218 236 250 236 216 242 250 252 251 333 266 229 103 124 139 138 119 126 127 134 154 148 142 124 125 126 121 125 133 133 135 140 148 145 144 143 145 145 142 141 137 136 133 131 131 132 134 134 133 128 123 119 119 123 121 123 124 125 125 127 129 132 135 138 140 151 157 161 146 148 144 149 166 178 182 200 207 222 229 234 252 258 273
233 230 240 245 243 243 233 235 232 233 227 235 238 225 248 236 254 236 239 251 251 253 96 123 45 348 131 134 163 136 135 130 133 152 134 141 124 122 128 114 127 132 133 135 136 142 148 145 143 145 154 151 146 145 143 137 134 135 136 137 138 138 135 132 126 124 126 125 131 135 141 140 139 138 139 141 145 148 149 154 164 172 169 160 163 169 172 194 200 201 215 219 236 238 240 242 250
232 232 237 240 237 238 236 233 239 249 213 228 252 263 230 243 252 256 220 246 265 225 90 210 160 266 37 65 122 133 131 133 137 131 125 103 116 120 113 129 139 137 137 133 139 146 149 147 138 151 154 153 153 146 140 142 141 140 140 142 143 140 137 133 131 130 130 138 147 151 157 152 149 150 153 149 152 156 157 162 161 169 175 176 174 174 187 195 207 210 211 223 228 236 239 243 244
231 234 235 232 239 232 227 242 226 232 235 195 244 247 243 212 234 243 253 220 236 262 178 179 272 173 75 109 116 125 132 133 132 126 111 123 127 125 133 144 143 136 138 143 138 153 146 139 141 151 156 152 154 145 143 146 145 142 143 145 145 145 142 137 134 134 139 154 159 174 169 166 171 161 168 159 162 165 170 154 163 165 179 183 177 184 192 204 212 217 219 220 231 228 234 241 248
234 225 227 236 232 233 229 231 234 245 242 193 209 252 251 223 214 224 218 252 256 233 233 184 199 86 103 114 127 130 134 139 142 138 140 139 146 141 148 151 155 146 154 131 140 153 141 137 143 155 150 155 153 146 148 146 148 149 150 150 150 150 146 141 142 149 156 167 185 185 187 196 172 167 191 152 179 154 153 164 170 175 177 189 188 189 198 205 217 220 221 226 224 231 234 247 255
223 231 232 232 228 235 234 236 234 240 247 249 193 201 265 264 208 221 218 214 241 245 297 278 212 124 120 128 127 134 138 141 148 148 150 154 154 152 152 150 153 165 134 139 137 137 122 135 144 150 153 158 155 150 144 147 153 159 156 161 160 160 158 158 164 160 171 181 185 188 204 228 170 180 156 181 151 167 159 173 179 183 191 197 199 203 204 212 220 224 226 228 231 240 245 242 249
219 232 233 233 226 237 234 237 238 237 246 245 237 193 200 250 269 206 220 209 210 229 217 239 248 147 138 133 140 141 148 152 154 156 160 162 154 158 150 151 149 186 141 135 136 119 128 143 149 151 160 157 159 148 148 152 165 162 162 166 162 167 167 177 179 172 173 183 182 189 209 215 92 135 154 160 132 144 148 172 188 198 209 213 210 209 216 223 225 230 233 232 235 234 224 227 236
210 227 234 233 223 237 231 235 237 243 245 249 252 238 192 194 228 249 224 233 249 250 212 236 230 180 151 148 147 148 151 157 163 165 168 171 157 159 156 156 151 169 120 131 134 127 141 146 142 157 164 164 151 141 156 158 167 166 169 164 166 169 182 197 178 195 166 188 186 187 178 142 113 77 132 154 130 147 145 181 190 205 204 211 208 220 200 213 212 229 228 228 233 230 227 223 222
225 229 234 236 236 241 231 235 239 244 253 257 245 242 245 204 214 232 233 230 237 244 242 210 220 220 161 153 144 144 151 160 168 170 175 174 160 172 168 154 132 153 122 143 138 128 137 150 143 162 164 160 141 149 166 163 166 175 169 165 169 176 182 198 172 193 160 192 166 140 157 134 129 126 152 84 133 78 166 190 200 200 190 215 172 223 207 192 184 226 217 203 211 237 276 60 282
231 230 234 232 229 242 233 226 234 236 242 242 240 240 248 231 218 219 231 226 239 254 226 228 188 142 125 126 139 144 156 161 168 169 179 173 162 187 145 129 136 144 155 140 138 144 148 160 148 161 171 151 152 152 167 166 176 171 164 165 173 183 196 164 171 173 171 172 171 164 163 150 149 155 177 164 152 122 26 274 253 303 317 275 182 199 311 334 87 352 331 51 112 33 112 243 21
233 232 230 232 232 232 236 242 233 229 235 240 243 246 239 238 227 208 210 207 225 257 257 228 115 112 143 151 145 152 161 161 169 174 176 185 163 188 144 133 139 142 167 135 150 150 151 161 156 166 176 152 156 165 172 162 180 162 162 179 181 197 153 178 160 185 160 160 190 170 133 110 97 104 74 40 126 118 215 237 239 187 210 283 124 170 195 181 197 150 222 136 103 61 4 35 33
226 236 232 235 234 233 226 235 244 246 230 227 242 247 246 238 239 230 221 202 187 225 241 247 132 144 152 151 145 144 161 161 166 171 178 191 162 183 149 135 145 154 152 148 146 152 157 166 155 170 175 149 172 167 166 170 165 156 165 178 180 190 152 163 173 172 140 159 179 168 140 113 121 98 132 349 32 356 231 231 159 212 184 207 194 162 203 107 229 221 77 58 31 38 1 78 78
233 231 234 237 236 233 222 228 232 238 250 241 220 231 246 252 242 251 245 237 208 208 215 218 148 153 130 125 140 150 162 164 168 173 181 185 189 170 150 140 145 152 134 145 146 153 158 163 166 175 171 159 171 165 163 168 163 158 171 188 155 179 172 150 162 170 138 148 164 160 148 111 71 113 110 154 141 349 302 238 201 201 187 206 146 131 185 166 182 70 150 90 67 157 287 240 131
232 238 236 235 237 237 230 227 230 228 235 246 251 232 222 228 244 246 247 240 241 210 220 184 200 167 135 141 143 155 158 163 170 172 181 180 177 148 137 137 153 149 134 152 155 152 154 166 172 166 173 173 160 183 167 164 164 163 174 184 140 184 160 149 163 153 145 151 141 131 188 116 172 138 87 242 155 238 274 286 249 183 161 202 134 149 173 174 158 167 109 134 186 113 228 258 141
245 246 241 238 238 239 235 234 230 226 228 231 240 252 256 228 220 239 241 207 231 273 255 191 221 200 120 124 147 143 151 156 167 180 184 179 169 159 150 157 160 154 149 159 156 151 151 169 168 163 174 175 154 179 175 158 169 173 187 160 161 188 131 150 185 151 148 157 115 120 120 67 106 132 168 177 187 189 187 203 220 203 181 87 55 340 123 86 72 62 157 173 188 168 214 230 102
246 240 248 243 232 234 235 231 231 226 225 221 228 243 243 246 230 230 242 200 175 243 253 283 270 126 132 144 146 143 141 154 179 190 188 180 175 151 159 158 157 159 158 148 149 147 152 157 166 173 171 180 170 182 172 156 174 174 175 147 179 143 143 171 205 152 133 112 90 83 53 80 27 287 89 135 173 207 167 165 202 97 61 103 147 165 99 32 291 65 336 62 107 74 360 18 94
245 242 240 245 244 232 223 232 230 232 229 221 213 228 230 236 239 238 254 205 175 191 220 244 215 143 151 165 170 147 149 161 186 193 185 187 165 154 160 153 162 166 151 146 142 150 149 151 167 179 171 170 176 191 141 165 171 170 166 156 159 131 156 199 147 127 104 99 100 102 101 93 165 334 344 35 72 325 163 360 147 146 164 138 115 59 181 167 99 147 269 86 18 137 113 166 71
236 241 242 237 233 236 221 214 224 232 224 234 219 232 227 230 238 227 225 243 229 221 195 216 220 153 165 187 160 153 154 167 181 185 180 192 163 159 159 159 169 170 152 138 147 147 150 157 165 177 166 160 185 179 148 162 172 157 154 169 142 155 174 169 127 122 99 92 118 98 97 139 161 284 339 281 120 30 341 48 78 80 109 103 133 141 126 120 88 39 28 3 147 41 57 82 80
230 225 227 230 233 227 231 219 212 221 215 226 225 228 231 229 228 229 200 213 231 240 222 202 210 181 165 187 158 159 164 170 173 177 170 184 160 153 159 165 170 163 152 140 143 150 152 159 166 171 159 156 189 162 160 162 159 156 164 159 126 176 126 96 319 128 83 80 79 96 102 102 69 19 303 304 46 9 238 133 116 75 77 62 27 280 117 140 136 80 54 355 328 197 154 74 76
228 228 224 224 223 229 232 216 225 218 213 222 217 226 230 227 222 222 188 196 226 231 230 213 186 197 183 183 176 166 162 177 172 174 169 172 156 164 163 168 169 159 152 142 149 153 157 157 172 166 164 162 183 156 164 158 147 150 179 139 126 154 114 117 188 73 81 76 105 99 113 101 87 28 300 348 98 299 258 125 119 159 107 85 30 315 272 65 40 85 79 358 321 291 97 99 90
224 215 230 226 222 217 227 214 213 218 210 228 214 222 230 230 220 221 191 196 209 230 225 206 180 189 196 187 206 169 171 175 173 175 167 168 166 164 162 164 165 158 156 140 151 156 158 158 172 159 168 167 173 160 162 148 150 147 156 115 113 130 106 46 43 54 114 130 102 100 106 97 97 52 337 2 7 222 191 110 101 35 92 151 63 312 50 81 84 58 96 45 320 313 102 109 103
217 210 215 223 228 224 220 216 196 204 200 223 226 220 228 228 230 214 218 210 205 216 224 211 197 194 196 198 198 180 170 169 169 175 164 163 161 149 156 161 163 151 141 144 152 153 157 160 170 154 167 168 165 158 148 141 147 157 112 93 71 70 57 34 354 129 260 114 119 115 107 94 101 129 41 36 318 187 77 71 41 60 89 46 128 298 20 78 81 85 39 70 293 316 80 94 95
227 223 222 224 225 223 223 222 221 211 208 211 221 221 220 224 231 220 214 213 210 218 219 208 208 202 192 210 199 183 163 175 169 159 157 154 150 149 159 163 156 147 145 152 156 154 159 162 174 156 170 166 160 152 143 144 148 145 119 94 101 48 160 140 152 188 355 83 122 111 115 123 138 97 106 63 244 4 89 82 63 214 160 178 57 54 78 57 81 79 39 35 70 80 77 88 96
238 237 236 230 228 234 230 231 212 233 222 212 212 220 226 220 223 221 228 207 205 233 225 192 204 199 193 213 210 181 172 165 149 150 156 149 153 154 154 161 150 146 151 159 159 165 165 167 174 164 171 168 158 149 136 147 157 131 119 137 153 193 171 150 136 119 60 254 134 120 116 121 146 159 117 201 231 91 58 91 65 20 347 60 53 65 59 78 62 73 23 313 89 95 98 102 103
236 242 238 239 231 229 228 225 212 228 230 208 209 217 227 235 218 217 227 226 217 214 231 204 199 187 195 214 204 175 185 150 144 148 157 142 148 151 154 155 154 155 157 164 165 170 172 172 171 162 167 157 146 146 152 156 162 159 145 151 152 184 171 153 133 126 166 177 132 128 149 172 157 132 171 181 82 103 137 126 99 52 28 63 63 54 78 60 77 83 85 12 309 116 113 124 145
231 237 244 243 237 231 225 230 226 215 228 222 205 215 222 225 232 217 215 220 227 233 223 210 185 181 196 214 211 174 165 150 130 136 141 148 148 156 158 157 162 156 158 173 175 176 176 166 169 162 156 149 145 152 156 156 144 126 134 148 169 165 154 136 111 132 147 131 156 152 137 122 125 151 162 135 145 88 73 73 74 360 46 98 96 81 82 84 43 126 180 155 25 17 121 146 160
236 230 233 238 244 237 221 218 226 224 216 228 221 210 216 219 221 235 219 212 217 231 231 178 175 184 197 211 193 168 163 138 134 143 151 155 157 162 163 161 164 155 166 182 185 180 168 161 170 159 150 152 156 157 161 144 130 130 132 149 189 162 133 119 125 139 132 145 144 134 126 134 155 149 141 104 108 109 87 96 66 30 62 7 67 105 116 106 131 106 353 100 138 73 156 102 61
226 236 232 233 239 245 241 214 206 231 223 223 229 225 213 211 212 221 227 207 212 203 181 184 182 192 205 204 187 169 162 137 147 152 155 159 165 169 166 165 157 161 179 191 184 174 168 173 167 155 151 153 155 155 152 136 132 141 150 146 112 105 117 128 136 142 149 138 130 131 126 113 109 94 98 127 117 96 55 46 86 57 46 346 68 109 98 114 128 70 51 37 32 209 97 93 104
227 226 236 235 237 246 239 240 214 214 229 212 222 223 217 205 210 219 217 200 203 203 188 190 194 197 203 201 196 177 154 154 150 160 166 164 165 169 168 164 160 173 187 193 176 174 171 168 161 149 148 149 150 148 147 145 158 160 161 150 155 153 150 155 166 158 155 158 145 130 130 137 113 105 97 54 34 89 90 81 62 83 81 37 34 55 68 37 61 101 89 81 74 68 113 116 99
233 218 220 238 244 240 249 250 236 212 220 208 215 232 219 212 219 217 217 206 201 207 196 199 199 200 200 198 203 176 144 152 152 158 164 163 163 169 169 166 166 180 188 181 174 174 168 165 152 149 153 154 150 148 150 155 160 159 162 164 163 160 147 160 156 151 153 138 134 142 122 110 107 94 86 92 79 69 60 55 51 45 52 58 63 78 65 48 39 31 54 85 85 91 111 110 123
232 234 219 221 240 244 252 251 232 243 227 222 214 216 229 209 216 216 210 212 202 211 196 195 196 197 198 194 204 176 145 152 153 159 164 161 166 166 171 167 173 183 180 171 171 173 168 155 146 146 146 149 153 153 158 165 161 158 164 168 158 154 148 140 144 137 120 120 116 115 121 113 117 116 112 105 104 91 84 89 99 127 166 139 96 75 76 84 76 52 46 47 38 28 56 113 129
227 230 235 218 230 240 248 242 236 241 230 219 219 192 211 227 223 203 200 211 204 211 209 186 190 197 199 196 204 174 146 148 153 161 167 168 165 167 168 169 174 178 182 178 167 172 167 149 147 148 145 148 157 158 163 168 165 163 168 159 149 156 150 131 115 125 131 128 125 129 128 119 117 115 116 114 107 113 120 126 146 173 149 111 103 92 74 69 82 80 67 52 44 40 30 30 65
228 236 238 231 227 235 239 230 235 254 237 223 218 195 216 216 247 224 194 208 206 211 208 184 189 196 198 202 199 172 143 147 156 157 162 164 163 162 161 167 177 180 180 173 165 173 169 153 152 150 147 156 162 164 168 168 165 164 167 167 161 157 139 136 136 142 124 130 131 130 129 128 115 99 104 105 105 104 100 94 89 81 63 71 82 92 94 89 79 77 70 72 75 63 42 43 52
235 231 239 231 227 229 235 236 249 268 245 223 214 201 204 219 224 240 203 199 206 208 200 181 189 196 196 201 196 174 152 152 155 154 159 161 157 156 158 172 176 175 172 173 172 177 175 156 157 156 159 162 163 168 172 173 171 169 171 171 166 151 145 146 154 145 140 141 147 144 147 140 129 118 110 103 107 111 120 134 108 84 91 105 109 110 111 107 99 85 80 79 74 76 65 59 57
246 221 225 234 224 220 227 231 245 251 247 223 211 210 199 223 204 235 243 202 204 207 196 181 188 195 197 194 194 179 163 157 161 160 161 154 153 157 163 168 171 171 173 174 178 174 178 162 158 159 166 167 166 172 176 180 175 175 173 173 168 159 153 165 172 167 166 163 154 156 156 141 129 131 123 114 126 142 122 114 120 119 109 96 89 100 108 112 105 99 93 87 84 76 74 72 70
237 230 218 222 213 207 220 220 229 241 256 239 215 207 216 217 225 214 235 228 190 206 202 182 186 195 196 190 187 178 169 156 157 149 154 157 160 161 168 170 167 172 175 176 175 177 177 166 163 168 173 172 174 172 179 178 175 178 178 174 170 162 165 172 171 168 167 162 154 163 150 130 125 133 130 136 125 112 118 130 121 112 108 106 115 105 96 93 90 92 88 77 67 60 57 63 57
227 223 213 206 213 202 213 214 229 237 246 249 225 210 231 233 217 229 229 220 196 202 199 181 188 193 193 188 183 180 174 173 153 151 154 159 160 162 165 167 169 173 173 173 174 176 179 167 167 170 175 176 174 175 178 179 174 178 180 176 164 161 169 164 166 164 165 148 157 151 144 140 140 148 128 125 117 111 123 122 112 115 109 108 100 98 98 100 101 94 88 86 83 88 84 75 70
227 235 219 216 224 199 199 210 207 214 228 220 215 208 216 226 198 198 235 233 213 190 194 183 184 188 189 188 186 184 171 172 146 152 152 157 162 161 165 168 168 172 173 170 177 182 175 168 169 173 172 177 175 176 177 176 174 181 181 163 160 161 156 159 162 159 150 152 164 156 151 152 162 131 119 131 144 148 137 115 107 106 108 102 106 101 93 86 82 81 78 77 80 80 73 70 70
221 220 226 222 212 193 220 207 214 205 220 220 216 220 193 231 251 198 204 231 229 183 184 181 184 187 188 189 188 183 173 176 146 147 146 148 159 159 164 168 167 171 171 171 177 183 175 172 172 176 175 173 173 176 174 173 175 180 169 156 163 156 154 168 159 150 158 170 166 157 149 151 124 119 133 152 158 128 119 119 121 112 111 111 106 109 102 86 81 85 82 82 84 78 87 86 76
211 217 214 215 211 211 217 215 231 240 255 241 209 214 219 218 245 243 188 220 234 187 180 185 187 186 187 188 184 179 175 164 142 142 144 154 159 163 166 166 168 170 171 176 181 182 178 171 172 175 176 175 173 172 173 172 173 168 166 159 159 160 171 173 160 160 168 160 152 148 143 136 140 139 135 141 121 123 128 133 122 122 119 124 121 102 98 102 96 90 96 100 103 101 87 87 83
217 219 221 226 224 226 208 214 186 230 229 235 222 214 217 211 213 188 216 213 228 185 174 182 194 186 187 185 178 177 172 160 137 148 152 159 163 167 167 168 171 171 172 174 178 178 176 177 176 174 173 176 174 172 175 176 170 163 163 162 164 166 169 163 157 161 160 152 144 147 142 144 142 128 132 128 129 133 138 128 121 127 133 126 118 111 113 112 114 110 109 98 88 92 98 101 101
242 223 209 221 191 208 211 238 200 199 219 216 218 228 228 221 212 173 208 207 216 184 172 182 194 189 186 179 176 175 165 136 141 142 151 158 164 168 167 172 173 172 173 173 175 171 175 180 178 178 175 175 172 171 175 172 169 161 162 162 164 163 162 158 159 151 141 143 143 146 155 126 124 120 132 138 141 140 133 127 132 129 128 126 118 117 116 112 109 115 109 106 120 119 105 88 84
232 252 242 226 228 212 207 223 252 208 203 212 211 218 232 220 222 193 207 218 227 175 165 186 198 185 179 174 177 170 149 137 143 145 150 158 165 168 170 171 173 173 171 171 171 171 174 179 178 177 172 171 173 176 172 169 164 157 160 157 161 162 160 160 148 139 149 142 152 157 149 127 130 131 135 148 146 142 137 139 137 136 136 131 124 121 122 108 112 115 125 138 141 123 119 124 121
205 231 253 241 226 215 229 213 233 218 209 207 218 212 225 218 216 207 200 197 228 176 166 184 196 181 172 171 171 174 152 145 146 148 153 159 164 168 168 170 170 170 164 164 167 174 179 179 177 175 173 173 173 172 168 166 160 161 155 159 156 162 161 150 142 143 145 157 143 127 137 137 133 141 150 152 151 145 143 144 142 145 143 134 132 131 118 126 125 137 145 138 139 136 137 131 125
213 219 239 253 222 201 210 218 220 223 223 211 220 226 208 214 213 215 188 181 220 179 172 185 191 174 164 167 170 168 159 149 150 150 152 157 162 166 165 163 163 164 166 169 168 175 180 178 177 176 170 174 172 167 166 162 162 158 158 157 157 164 155 148 146 148 154 148 139 145 145 146 141 146 156 156 151 149 144 148 148 147 144 141 140 134 137 137 148 142 130 144 156 149 136 124 138